• In Hungary
  • List of Countries
  • For 7 days
  • Water Temperature
  • Satellite Maps
  • Weather Map
  • News
  • Weather Widgets
  • user-avatar
    Login

    Hourly Weather Vangazi

    Today, 18 October, Thursday

    Time Temperature Precipitation Wind Pressure Humidity
    00:00 +7°C° 0 mm 2 mps 747 mmHg 36%
    01:00 +6°C° 0 mm 2 mps 747 mmHg 38%
    02:00 +6°C° 0 mm 2 mps 746 mmHg 41%
    03:00 +6°C° 0 mm 2 mps 746 mmHg 43%
    04:00 +6°C° 0 mm 1 mps 746 mmHg 45%
    05:00 +6°C° 0 mm 1 mps 746 mmHg 44%
    06:00 +7°C° 0 mm 1 mps 746 mmHg 43%
    07:00 +8°C° 0 mm 1 mps 746 mmHg 41%
    08:00 +9°C° 0 mm 1 mps 745 mmHg 36%
    09:00 +11°C° 0 mm 1 mps 745 mmHg 31%
    10:00 +12°C° 0 mm 1 mps 745 mmHg 27%
    11:00 +13°C° 0 mm 1 mps 745 mmHg 24%
    12:00 +14°C° 0 mm 2 mps 745 mmHg 21%
    13:00 +15°C° 0 mm 2 mps 744 mmHg 19%
    14:00 +15°C° 0 mm 2 mps 744 mmHg 18%
    15:00 +15°C° 0 mm 2 mps 744 mmHg 18%
    16:00 +15°C° 0 mm 2 mps 744 mmHg 17%
    17:00 +14°C° 0 mm 2 mps 744 mmHg 18%
    18:00 +13°C° 0 mm 2 mps 744 mmHg 20%
    19:00 +10°C° 0 mm 2 mps 744 mmHg 21%
    20:00 +10°C° 0 mm 2 mps 744 mmHg 22%
    21:00 +9°C° 0 mm 2 mps 744 mmHg 22%
    22:00 +9°C° 0 mm 2 mps 744 mmHg 23%
    23:00 +9°C° 0 mm 1 mps 744 mmHg 24%

    Tomorrow, 19 October, Friday

    Time Temperature Precipitation Wind Pressure Humidity
    00:00 +9°C° 0 mm 1 mps 744 mmHg 24%
    01:00 +8°C° 0 mm 1 mps 744 mmHg 25%
    02:00 +8°C° 0 mm 1 mps 744 mmHg 26%
    03:00 +7°C° 0 mm 1 mps 744 mmHg 27%
    04:00 +6°C° 0 mm 0 mps 745 mmHg 28%
    05:00 +7°C° 0 mm 0 mps 745 mmHg 27%
    06:00 +7°C° 0 mm 0 mps 745 mmHg 26%
    07:00 +8°C° 0 mm 0 mps 745 mmHg 26%
    08:00 +10°C° 0 mm 0 mps 746 mmHg 23%
    09:00 +12°C° 0 mm 0 mps 746 mmHg 20%
    10:00 +14°C° 0 mm 1 mps 746 mmHg 17%
    11:00 +15°C° 0 mm 1 mps 746 mmHg 17%
    12:00 +16°C° 0 mm 1 mps 746 mmHg 16%
    13:00 +18°C° 0 mm 1 mps 745 mmHg 16%
    14:00 +18°C° 0 mm 1 mps 745 mmHg 16%
    15:00 +18°C° 0 mm 1 mps 745 mmHg 17%
    16:00 +17°C° 0 mm 2 mps 745 mmHg 17%
    17:00 +16°C° 0 mm 2 mps 745 mmHg 19%
    18:00 +15°C° 0 mm 2 mps 745 mmHg 21%
    19:00 +14°C° 0 mm 2 mps 746 mmHg 23%
    20:00 +13°C° 0 mm 2 mps 745 mmHg 24%
    21:00 +13°C° 0 mm 2 mps 745 mmHg 25%
    22:00 +12°C° 0 mm 2 mps 745 mmHg 27%
    23:00 +12°C° 0 mm 2 mps 745 mmHg 28%

    Day after tomorrow, 20 October, Saturday

    Time Temperature Precipitation Wind Pressure Humidity
    00:00 +12°C° 0 mm 2 mps 745 mmHg 28%
    01:00 +10°C° 0 mm 2 mps 745 mmHg 29%
    02:00 +10°C° 0 mm 2 mps 745 mmHg 30%
    03:00 +10°C° 0 mm 2 mps 745 mmHg 30%
    04:00 +9°C° 0 mm 2 mps 745 mmHg 31%
    05:00 +10°C° 0 mm 2 mps 745 mmHg 30%
    06:00 +10°C° 0 mm 2 mps 745 mmHg 29%
    07:00 +12°C° 0 mm 2 mps 745 mmHg 28%
    08:00 +14°C° 0 mm 2 mps 745 mmHg 25%
    09:00 +16°C° 0 mm 2 mps 745 mmHg 21%
    10:00 +18°C° 0 mm 2 mps 745 mmHg 17%
    11:00 +19°C° 0 mm 2 mps 745 mmHg 16%
    12:00 +20°C° 0 mm 2 mps 745 mmHg 15%
    13:00 +21°C° 0 mm 2 mps 744 mmHg 14%
    14:00 +21°C° 0 mm 2 mps 744 mmHg 14%
    15:00 +21°C° 0 mm 2 mps 744 mmHg 14%
    16:00 +21°C° 0 mm 2 mps 744 mmHg 15%
    17:00 +19°C° 0 mm 3 mps 744 mmHg 17%
    18:00 +17°C° 0 mm 3 mps 744 mmHg 20%
    19:00 +16°C° 0 mm 3 mps 744 mmHg 23%
    20:00 +14°C° 0 mm 3 mps 744 mmHg 24%
    21:00 +14°C° 0 mm 3 mps 744 mmHg 26%
    22:00 +13°C° 0 mm 3 mps 744 mmHg 27%
    23:00 +13°C° 0 mm 3 mps 744 mmHg 28%

    21 October, Sunday

    Time Temperature Precipitation Wind Pressure Humidity
    00:00 +13°C° 0 mm 3 mps 743 mmHg 29%
    01:00 +12°C° 0 mm 3 mps 743 mmHg 29%
    02:00 +12°C° 0 mm 3 mps 743 mmHg 30%
    03:00 +12°C° 0 mm 3 mps 743 mmHg 31%
    04:00 +11°C° 0 mm 3 mps 743 mmHg 32%
    05:00 +12°C° 0 mm 3 mps 743 mmHg 32%
    06:00 +13°C° 0 mm 2 mps 743 mmHg 31%
    07:00 +13°C° 0 mm 2 mps 743 mmHg 31%
    08:00 +16°C° 0 mm 2 mps 743 mmHg 27%
    09:00 +18°C° 0 mm 2 mps 744 mmHg 23%
    10:00 +20°C° 0 mm 2 mps 744 mmHg 19%
    11:00 +21°C° 0 mm 2 mps 743 mmHg 17%
    12:00 +23°C° 0 mm 1 mps 743 mmHg 15%
    13:00 +24°C° 0 mm 1 mps 742 mmHg 14%
    14:00 +24°C° 0 mm 1 mps 742 mmHg 15%
    15:00 +24°C° 0 mm 1 mps 742 mmHg 15%
    16:00 +22°C° 0 mm 0 mps 742 mmHg 16%
    17:00 +23°C° 0 mm 1 mps 742 mmHg 17%
    18:00 +21°C° 0 mm 1 mps 742 mmHg 19%
    19:00 +18°C° 0 mm 2 mps 742 mmHg 20%
    20:00 +18°C° 0 mm 2 mps 742 mmHg 21%
    21:00 +17°C° 0 mm 2 mps 742 mmHg 22%
    22:00 +17°C° 0 mm 2 mps 742 mmHg 22%
    23:00 +16°C° 0 mm 2 mps 742 mmHg 23%

    22 October, Monday

    Time Temperature Precipitation Wind Pressure Humidity
    00:00 +16°C° 0 mm 2 mps 741 mmHg 24%
    01:00 +16°C° 0 mm 2 mps 741 mmHg 24%
    02:00 +15°C° 0 mm 2 mps 741 mmHg 25%
    03:00 +15°C° 0 mm 2 mps 741 mmHg 25%
    04:00 +14°C° 0 mm 3 mps 741 mmHg 25%
    05:00 +14°C° 0 mm 3 mps 741 mmHg 25%
    06:00 +16°C° 0 mm 3 mps 741 mmHg 24%
    07:00 +16°C° 0 mm 3 mps 741 mmHg 24%
    08:00 +18°C° 0 mm 3 mps 741 mmHg 21%
    09:00 +21°C° 0 mm 2 mps 741 mmHg 18%
    10:00 +24°C° 0 mm 2 mps 741 mmHg 15%
    11:00 +25°C° 0 mm 2 mps 741 mmHg 14%
    12:00 +26°C° 0 mm 1 mps 741 mmHg 13%
    13:00 +27°C° 0 mm 1 mps 740 mmHg 12%
    14:00 +27°C° 0 mm 1 mps 740 mmHg 12%
    15:00 +26°C° 0 mm 1 mps 740 mmHg 12%
    16:00 +26°C° 0 mm 1 mps 739 mmHg 13%
    17:00 +25°C° 0 mm 2 mps 739 mmHg 14%
    18:00 +23°C° 0 mm 2 mps 739 mmHg 15%
    19:00 +20°C° 0 mm 3 mps 740 mmHg 16%
    20:00 +20°C° 0 mm 3 mps 740 mmHg 16%
    21:00 +20°C° 0 mm 3 mps 740 mmHg 17%
    22:00 +19°C° 0 mm 3 mps 740 mmHg 17%
    23:00 +19°C° 0 mm 3 mps 739 mmHg 18%

    23 October, Tuesday

    Time Temperature Precipitation Wind Pressure Humidity
    00:00 +18°C° 0 mm 2 mps 739 mmHg 18%
    01:00 +17°C° 0 mm 2 mps 739 mmHg 19%
    02:00 +17°C° 0 mm 2 mps 739 mmHg 19%
    03:00 +16°C° 0 mm 2 mps 739 mmHg 20%
    04:00 +16°C° 0 mm 2 mps 739 mmHg 20%
    05:00 +16°C° 0 mm 2 mps 739 mmHg 19%
    06:00 +17°C° 0 mm 2 mps 739 mmHg 19%
    07:00 +17°C° 0 mm 2 mps 740 mmHg 18%
    08:00 +20°C° 0 mm 2 mps 740 mmHg 16%
    09:00 +23°C° 0 mm 2 mps 740 mmHg 14%
    10:00 +25°C° 0 mm 2 mps 740 mmHg 12%
    11:00 +26°C° 0 mm 2 mps 740 mmHg 11%
    12:00 +27°C° 0 mm 1 mps 740 mmHg 10%
    13:00 +28°C° 0 mm 1 mps 740 mmHg 10%
    14:00 +27°C° 0 mm 1 mps 740 mmHg 10%
    15:00 +27°C° 0 mm 2 mps 740 mmHg 11%
    16:00 +26°C° 0 mm 2 mps 740 mmHg 12%
    17:00 +25°C° 0 mm 3 mps 740 mmHg 13%
    18:00 +22°C° 0 mm 3 mps 740 mmHg 15%
    19:00 +21°C° 0 mm 3 mps 740 mmHg 17%
    20:00 +21°C° 0 mm 3 mps 740 mmHg 17%
    21:00 +20°C° 0 mm 3 mps 740 mmHg 18%
    22:00 +20°C° 0 mm 3 mps 740 mmHg 18%
    23:00 +19°C° 0 mm 3 mps 740 mmHg 19%
    Show more